CAPE
0 0 0 0 1 19 10 4 0 0 0 0 0 0 0 0 0 0 0 28 10 323 593 894 1415 1624 1907 2052 2140 2135 2026 1895 1850 1739 1590 1269 1137 1188 1263 1459 1227 1305 1089 1025 834 730 835 700 578
0 0 0 0 0 3 0 0 0 0 0 0 0 0 0 0 0 0 27 116 124 403 1141 386 1347 997 1522 1851 1914 1984 1962 1834 1830 1759 1710 1694 1426 1211 1328 1506 1458 1272 1011 1005 1112 927 765 560 555
0 9 0 0 0 1 3 0 0 0 0 0 0 0 0 0 0 0 93 162 204 583 1380 579 1242 967 1377 1352 1691 1711 1464 1540 1693 1799 1720 1735 1681 1282 1144 1457 1411 1086 1085 1092 854 631 584 486 524
0 69 5 5 0 0 0 0 0 0 0 0 0 0 0 0 0 5 189 269 306 702 1316 1037 1157 864 1161 1116 1342 1568 1530 1572 1561 1803 1840 1837 1655 1524 1211 1393 1020 808 744 747 424 345 318 454 363
5 55 18 16 5 1 0 0 0 0 0 0 0 0 0 0 60 143 285 346 397 664 1187 1258 1240 1225 1314 966 1089 1310 1535 1536 1577 1818 1952 1843 1652 1398 1205 1088 743 709 765 667 410 225 219 392 321
14 47 11 1 0 3 1 0 0 0 0 0 0 0 0 0 0 152 284 409 433 655 1127 995 1013 1148 1168 1088 1076 1040 1327 1463 1722 1815 1820 1558 1343 1197 1249 958 772 736 758 651 442 325 198 225 83
0 9 0 0 0 0 0 0 0 0 0 0 0 0 0 0 0 15 411 414 518 760 1170 1071 811 864 734 719 744 894 1091 1238 1530 1549 1365 1005 787 915 1050 863 808 876 828 648 553 418 163 7 39
0 0 0 0 1 8 0 0 0 0 0 0 0 0 0 0 0 0 365 493 481 1067 1354 919 558 870 655 551 492 635 1043 1187 1252 1161 754 486 566 649 557 430 548 794 722 554 369 257 51 2 4
0 0 0 0 0 1 0 0 0 0 0 0 0 0 0 0 0 0 394 517 563 1067 1085 999 560 625 686 511 399 367 706 763 749 418 172 316 837 717 343 188 403 382 394 336 209 55 26 3 2
0 0 0 0 1 4 1 0 0 0 0 0 0 0 0 0 0 0 0 339 616 887 1102 1127 829 608 497 534 643 731 824 1059 1038 965 881 784 656 441 262 207 167 215 134 63 41 7 1 2 8
0 0 0 0 0 0 0 0 0 0 0 0 0 0 0 0 0 0 0 0 434 791 1173 1203 845 891 815 539 751 1129 1213 1096 1007 706 661 587 444 350 423 295 235 127 26 28 6 3 1 5 12
0 0 0 0 0 0 0 0 0 0 0 0 0 0 0 0 0 0 0 0 0 421 967 978 921 865 746 702 910 1129 960 677 383 454 404 454 496 292 226 240 179 46 3 2 1 1 2 3 6
0 0 0 0 0 0 0 0 0 0 0 0 0 0 0 0 0 0 0 0 0 19 709 1006 923 895 878 783 888 786 516 364 351 377 271 266 300 154 145 165 49 1 0 3 0 0 0 2 3
0 0 0 0 0 0 0 0 0 0 0 0 0 0 0 0 0 0 0 0 0 0 379 858 816 923 931 957 660 477 409 295 270 317 239 215 204 170 184 111 6 0 1 4 2 1 0 1 1
0 0 0 0 0 0 0 0 0 0 0 0 0 0 0 0 0 0 0 0 0 0 0 282 569 987 934 580 656 476 243 274 359 242 231 216 145 134 92 31 2 1 0 4 2 1 0 0 0
0 0 0 0 0 0 8 2 10 19 24 5 0 0 0 0 0 0 0 0 1 4 2 2 556 555 902 791 438 331 369 331 324 219 209 176 78 103 85 1 0 1 0 1 1 0 0 0 0
0 0 0 0 0 0 13 3 46 4 22 22 0 2 17 0 0 0 0 0 1 3 5 5 18 626 838 699 483 251 289 340 272 238 242 133 53 13 18 11 0 0 1 2 0 0 0 0 0
1 1 0 0 0 3 15 28 9 7 3 4 6 6 5 1 0 0 0 0 1 1 1 1 3 403 924 880 475 252 233 288 221 277 193 97 21 0 0 1 1 3 0 1 1 0 0 0 0
3 5 2 0 0 6 7 8 13 11 2 1 4 3 2 1 0 0 0 0 3 1 1 2 4 3 220 408 398 153 143 160 165 138 116 51 5 0 0 1 2 0 1 1 0 0 0 0 0
0 0 0 0 0 4 8 16 9 8 9 10 7 4 3 2 0 0 0 0 1 4 4 1 3 4 4 185 201 144 132 162 183 113 112 24 0 1 0 1 1 0 2 1 0 0 1 1 0
0 0 0 2 2 1 1 13 3 4 5 6 3 0 1 1 3 1 0 0 1 3 6 3 3 5 6 4 144 72 103 155 149 91 32 13 0 0 0 1 0 0 0 1 2 0 0 1 1
1 0 0 0 8 13 1 29 0 1 7 2 0 0 1 1 1 0 1 1 1 4 4 5 2 7 7 3 11 64 87 67 68 49 40 14 0 0 0 0 0 0 1 0 0 0 0 1 0
0 0 0 0 4 6 1 8 0 0 0 2 2 0 0 1 0 0 1 0 0 1 3 5 3 1 7 2 4 40 49 59 32 39 56 27 2 1 1 0 0 0 0 0 0 0 0 1 0
0 0 0 4 4 6 0 3 5 1 0 0 0 0 0 0 0 0 0 0 2 1 4 3 5 1 5 3 3 2 1 62 46 66 69 17 3 1 1 0 0 1 0 0 0 0 0 0 0
0 0 0 1 1 3 0 2 2 0 0 0 0 0 0 0 0 0 0 0 0 1 2 3 5 4 2 4 3 3 2 1 11 75 32 40 2 1 1 0 0 0 0 0 1 0 0 0 0
0 0 0 0 0 0 0 0 0 0 0 0 0 0 0 0 0 0 0 0 0 0 1 5 5 3 2 2 5 5 3 3 2 1 5 64 15 1 1 1 2 1 1 0 0 0 0 0 0
0 0 0 0 0 0 0 0 0 0 0 0 0 0 0 0 0 0 0 1 1 0 1 4 4 2 2 2 2 5 4 3 3 2 2 2 4 13 3 1 2 1 1 1 0 0 0 0 0
0 0 0 1 0 0 0 0 0 0 0 0 0 0 0 0 0 0 0 1 3 5 3 5 3 2 2 1 3 2 5 4 3 2 2 1 2 4 5 3 2 1 0 0 1 2 2 1 2
0 0 0 0 0 0 0 0 0 0 0 0 0 0 0 0 0 0 0 0 5 4 4 4 2 2 1 1 2 1 1 5 3 1 0 1 3 3 5 4 14 12 1 1 1 0 0 1 1
0 0 0 0 0 0 0 0 0 0 0 0 0 0 0 0 0 0 0 2 3 4 5 5 5 3 1 1 1 1 0 0 1 1 1 0 0 2 2 4 0 2 12 3 3 1 0 0 0
CIN
-0 -0 -0 -0 -0 -0 -0 -0 -0 -0 -0 -0 -0 -0 -0 -0 -0 -0 -0 -264 -67 -204 -153 -98 -38 -13 -0 -0 -0 -0 -0 -0 -0 -0 -0 -0 -0 -0 -0 -0 -0 -0 -0 -0 -0 -0 -0 -0 -0
-0 -0 -0 -0 -0 -0 -0 -0 -0 -0 -0 -0 -0 -0 -0 -0 -0 -0 -213 -279 -222 -192 -108 -164 -44 -56 -7 -0 -0 -0 -0 -0 -0 -0 -0 -0 -0 -0 -0 -0 -0 -0 -0 -0 -0 -0 -0 -0 -0
-0 -3 -0 -0 -0 -4 -0 -0 -0 -0 -0 -0 -0 -0 -0 -0 -0 -0 -229 -265 -223 -173 -77 -139 -64 -62 -16 -7 -0 -0 -0 -1 -0 -0 -0 -0 -0 -0 -0 -0 -0 -0 -0 -0 -1 -0 -0 -0 -0
-0 -0 -0 -0 -0 -0 -0 -0 -0 -0 -0 -0 -0 -0 -0 -0 -0 -97 -255 -231 -184 -152 -66 -108 -63 -69 -32 -17 -1 -0 -0 -1 -1 -0 -0 -0 -0 -0 -0 -0 -0 -1 -3 -0 -0 -0 -0 -0 -0
-0 -0 -0 -0 -0 -0 -0 -0 -0 -0 -0 -0 -0 -0 -0 -0 -203 -234 -208 -185 -145 -138 -85 -68 -54 -30 -11 -31 -9 -1 -1 -2 -1 -0 -0 -0 -0 -0 -0 -0 -0 -1 -0 -0 -0 -5 -10 -0 -0
-0 -0 -0 -0 -0 -0 -0 -0 -0 -0 -0 -0 -0 -19 -0 -0 -0 -150 -129 -143 -123 -105 -95 -81 -55 -31 -21 -11 -10 -7 -3 -2 -0 -0 -0 -0 -0 -0 -0 -0 -0 -0 -0 -0 -1 -5 -23 -15 -1
-0 -0 -0 -0 -0 -0 -0 -0 -0 -0 -0 -0 -0 -0 -0 -0 -0 -78 -54 -66 -78 -57 -61 -52 -59 -36 -38 -37 -24 -19 -13 -8 -0 -0 -0 -0 -0 -0 -0 -0 -0 -0 -0 -0 -0 -2 -42 -12 -33
-0 -0 -0 -0 -0 -0 -0 -0 -0 -0 -0 -0 -0 -0 -0 -0 -0 -0 -18 -17 -30 -25 -20 -45 -71 -27 -27 -20 -41 -24 -12 -10 -3 -2 -4 -7 -2 -0 -1 -17 -5 -0 -0 -1 -13 -37 -20 -0 -0
-0 -0 -0 -0 -0 -2 -0 -0 -0 -0 -0 -0 -0 -0 -0 -0 -0 -0 -1 -0 -6 -1 -4 -14 -55 -43 -20 -18 -21 -49 -28 -13 -12 -17 -58 -41 -0 -0 -21 -40 -26 -26 -26 -32 -0 -36 -57 -0 -0
-0 -0 -0 -0 -0 -0 -0 -0 -0 -0 -0 -0 -0 -0 -0 -0 -0 -0 -0 -0 -11 -0 -0 -4 -10 -28 -31 -11 -1 -0 -0 -0 -0 -0 -0 -0 -0 -1 -50 -15 -11 -1 -5 -26 -36 -4 -0 -0 -0
-0 -0 -0 -0 -0 -0 -0 -0 -0 -0 -0 -0 -0 -0 -0 -0 -0 -0 -0 -0 -3 -0 -0 -0 -5 -0 -4 -12 -0 -0 -0 -0 -0 -0 -0 -0 -0 -2 -0 -38 -0 -9 -94 -90 -0 -0 -0 -0 -0
-0 -0 -0 -0 -0 -0 -0 -0 -0 -0 -0 -0 -0 -0 -0 -0 -0 -0 -0 -0 -0 -6 -0 -0 -0 -1 -0 -1 -0 -0 -0 -0 -7 -1 -1 -0 -0 -3 -26 -40 -12 -78 -0 -0 -0 -0 -0 -0 -0
-0 -0 -0 -0 -0 -0 -0 -0 -0 -0 -0 -0 -0 -0 -0 -0 -0 -0 -0 -0 -0 -38 -0 -0 -0 -1 -0 -0 -3 -0 -12 -10 -13 -10 -23 -21 -11 -47 -34 -34 -124 -0 -0 -0 -0 -0 -0 -0 -0
-0 -0 -0 -0 -0 -0 -0 -0 -0 -0 -0 -0 -0 -0 -0 -0 -0 -0 -0 -0 -0 -0 -33 -0 -0 -0 -0 -0 -0 -32 -7 -13 -13 -13 -31 -30 -37 -55 -30 -78 -102 -0 -0 -0 -0 -0 -0 -0 -0
-0 -0 -0 -0 -0 -0 -0 -0 -0 -0 -0 -0 -0 -0 -0 -0 -0 -0 -0 -0 -0 -0 -0 -1 -6 -0 -0 -19 -2 -15 -42 -8 -1 -13 -29 -45 -90 -94 -110 -204 -0 -0 -0 -0 -0 -0 -0 -0 -0
-0 -0 -0 -0 -0 -0 -2 -0 -0 -0 -0 -0 -0 -0 -0 -0 -0 -0 -0 -0 -0 -0 -0 -0 -3 -4 -0 -0 -1 -6 -0 -5 -2 -19 -21 -59 -170 -116 -112 -0 -0 -0 -0 -0 -0 -0 -0 -0 -0
-0 -0 -0 -0 -0 -0 -0 -0 -0 -0 -0 -0 -0 -0 -0 -0 -0 -0 -0 -0 -0 -0 -0 -0 -26 -8 -0 -0 -3 -15 -13 -0 -2 -3 -16 -88 -185 -271 -87 -140 -0 -0 -0 -0 -0 -0 -0 -0 -0
-0 -0 -0 -0 -0 -0 -0 -0 -0 -0 -0 -0 -0 -0 -0 -0 -0 -0 -0 -0 -0 -0 -0 -0 -0 -1 -0 -0 -5 -6 -10 -0 -7 -4 -29 -110 -219 -0 -0 -0 -0 -0 -0 -0 -0 -0 -0 -0 -0
-0 -0 -0 -0 -0 -0 -0 -0 -0 -0 -0 -0 -0 -0 -0 -0 -0 -0 -0 -0 -0 -0 -0 -0 -0 -0 -10 -2 -0 -8 -7 -6 -20 -34 -54 -140 -124 -0 -0 -0 -0 -0 -0 -0 -0 -0 -0 -0 -0
-0 -0 -0 -0 -0 -0 -0 -0 -0 -0 -0 -0 -0 -0 -0 -0 -0 -0 -0 -0 -0 -0 -0 -0 -0 -0 -0 -1 -6 -1 -1 -4 -19 -38 -48 -175 -0 -0 -0 -0 -0 -0 -0 -0 -0 -0 -0 -0 -0
-0 -0 -0 -0 -0 -0 -0 -0 -0 -0 -0 -0 -0 -0 -0 -0 -0 -0 -0 -0 -0 -0 -0 -0 -0 -0 -0 -0 -2 -5 -6 -1 -2 -9 -81 -200 -0 -0 -0 -0 -0 -0 -0 -0 -0 -0 -0 -0 -0
-0 -0 -0 -0 -0 -0 -0 -0 -0 -0 -0 -0 -0 -0 -0 -0 -0 -0 -0 -0 -0 -0 -0 -0 -0 -0 -0 -0 -8 -1 -0 -3 -4 -18 -50 -191 -0 -0 -0 -0 -0 -0 -0 -0 -0 -0 -0 -0 -0
-0 -0 -0 -0 -0 -0 -0 -0 -0 -0 -0 -0 -0 -0 -0 -0 -0 -0 -0 -0 -0 -0 -0 -0 -0 -0 -0 -0 -0 -5 -3 -5 -17 -16 -28 -99 -113 -0 -0 -0 -0 -0 -0 -0 -0 -0 -0 -0 -0
-0 -0 -0 -0 -0 -0 -0 -0 -0 -0 -0 -0 -0 -0 -0 -0 -0 -0 -0 -0 -0 -0 -0 -0 -0 -0 -0 -0 -0 -0 -0 -1 -3 -1 -4 -79 -208 -0 -0 -0 -0 -0 -0 -0 -0 -0 -0 -0 -0
-0 -0 -0 -0 -0 -0 -0 -0 -0 -0 -0 -0 -0 -0 -0 -0 -0 -0 -0 -0 -0 -0 -0 -0 -0 -0 -0 -0 -0 -0 -0 -0 -2 -1 -1 -22 -52 -0 -0 -0 -0 -0 -0 -0 -0 -0 -0 -0 -0
-0 -0 -0 -0 -0 -0 -0 -0 -0 -0 -0 -0 -0 -0 -0 -0 -0 -0 -0 -0 -0 -0 -0 -0 -0 -0 -0 -0 -0 -0 -0 -0 -0 -0 -3 -6 -20 -0 -0 -0 -0 -0 -0 -0 -0 -0 -0 -0 -0
-0 -0 -0 -0 -0 -0 -0 -0 -0 -0 -0 -0 -0 -0 -0 -0 -0 -0 -0 -0 -0 -0 -0 -0 -0 -0 -0 -0 -0 -0 -0 -0 -0 -0 -0 -0 -3 -11 -40 -0 -0 -0 -0 -0 -0 -0 -0 -0 -0
-0 -0 -0 -0 -0 -0 -0 -0 -0 -0 -0 -0 -0 -0 -0 -0 -0 -0 -0 -0 -0 -0 -0 -0 -0 -0 -0 -0 -0 -0 -0 -0 -0 -0 -0 -0 -0 -0 -12 -7 -0 -0 -0 -0 -0 -0 -0 -0 -0
-0 -0 -0 -0 -0 -0 -0 -0 -0 -0 -0 -0 -0 -0 -0 -0 -0 -0 -0 -0 -0 -0 -0 -0 -0 -0 -0 -0 -0 -0 -0 -0 -0 -0 -0 -0 -0 -0 -0 -0 -30 -54 -58 -0 -0 -0 -0 -0 -0
-0 -0 -0 -0 -0 -0 -0 -0 -0 -0 -0 -0 -0 -0 -0 -0 -0 -0 -0 -0 -0 -0 -0 -0 -0 -0 -0 -0 -0 -0 -0 -0 -0 -0 -0 -0 -0 -0 -0 -0 -0 -3 -33 -18 -35 -0 -0 -0 -0
Wind_Speed
11 4 3 4 3 4 11 9 5 1 4 4 4 7 12 3 9 1 2 11 19 21 21 21 20 19 18 15 15 15 16 16 16 17 16 17 16 15 14 14 14 15 17 19 19 19 19 20 19
8 2 2 2 4 5 6 5 11 5 6 9 7 8 8 10 3 1 4 13 16 21 20 22 20 21 18 18 16 17 17 17 16 16 16 16 16 15 14 14 15 15 17 18 19 18 18 18 17
4 2 1 2 4 10 3 5 11 7 9 8 6 5 4 3 0 4 2 15 18 21 20 20 21 22 18 18 17 16 16 15 16 16 15 15 15 15 15 15 16 16 16 17 17 17 16 16 15
2 3 4 6 10 9 7 5 5 6 8 11 10 8 4 5 6 7 3 14 19 20 19 19 21 21 19 19 18 18 17 16 17 16 15 15 16 15 15 16 16 16 16 16 17 17 16 15 15
3 2 8 7 15 7 8 5 4 6 2 8 9 5 5 6 11 6 7 12 19 20 17 19 20 21 19 20 18 18 18 17 18 16 15 16 15 15 16 16 16 16 16 15 17 17 16 14 14
4 3 9 15 17 11 11 7 13 7 7 12 7 12 6 14 23 17 7 14 17 19 14 19 18 18 19 18 18 17 17 17 18 17 16 16 16 16 17 16 15 16 15 16 16 16 16 15 15
4 5 11 16 13 8 10 13 9 13 11 12 16 10 4 3 24 21 9 11 15 17 12 15 19 17 14 15 16 17 16 17 17 16 16 15 16 17 17 16 15 15 15 15 14 15 15 15 14
2 3 9 10 16 18 9 12 7 9 11 16 7 5 1 18 24 20 8 10 12 11 11 15 18 18 18 17 12 13 13 12 13 13 13 14 13 13 15 14 14 14 14 15 15 14 14 15 14
2 5 8 11 12 10 10 10 7 13 11 9 6 6 13 20 19 17 5 7 8 8 10 15 16 18 18 17 13 12 14 13 12 12 14 15 13 15 17 11 12 14 14 15 14 14 14 13 11
3 3 3 5 4 7 14 11 14 9 15 10 11 9 20 23 17 16 14 8 14 14 11 16 17 18 18 14 17 16 15 14 14 14 17 13 14 13 12 12 13 16 15 15 15 14 14 10 7
6 4 5 2 7 5 11 15 8 11 12 8 12 20 20 21 20 14 15 13 14 16 14 15 17 17 18 14 13 9 8 10 9 15 13 11 10 10 9 9 10 9 13 9 10 9 7 8 6
5 3 6 8 9 9 13 14 15 16 18 19 20 20 18 19 17 16 15 15 11 15 15 13 16 14 17 12 11 10 9 7 7 10 12 9 8 9 9 9 10 8 7 10 8 5 7 8 8
1 5 8 11 18 15 14 15 19 17 18 19 21 18 19 15 13 15 13 13 14 14 19 15 16 15 14 15 9 9 8 8 9 10 11 10 9 10 11 9 9 7 8 9 8 8 7 8 8
8 11 14 9 11 12 12 15 14 16 17 18 17 18 17 11 12 14 13 14 14 15 15 16 16 18 16 15 16 8 9 9 8 9 9 12 9 9 11 10 9 8 8 7 8 8 7 7 7
9 9 5 1 8 7 12 14 10 13 15 19 18 17 10 8 11 12 15 15 15 15 15 13 18 18 18 13 13 8 8 8 9 7 11 12 10 11 12 10 9 7 7 9 8 8 7 7 6
5 3 6 4 7 1 9 14 14 13 17 17 14 14 6 6 9 11 14 15 15 14 15 15 13 16 18 16 9 6 9 9 9 8 8 12 12 12 12 9 9 8 8 8 7 8 7 7 6
5 6 9 7 5 10 5 16 15 17 18 12 9 8 4 4 12 14 14 16 16 14 14 14 14 18 18 16 10 8 10 8 8 8 9 11 12 12 8 10 8 11 7 7 8 7 8 7 7
8 7 9 11 10 13 9 12 11 15 14 16 14 11 9 7 12 16 17 16 16 14 14 14 12 14 18 13 10 8 7 7 9 9 8 12 10 13 10 8 10 9 8 7 6 9 6 6 7
7 9 12 12 8 16 10 4 10 12 15 15 14 13 13 12 11 13 16 15 14 16 16 16 15 12 9 10 10 8 9 9 9 8 12 12 12 13 11 9 11 9 10 9 9 8 10 4 6
4 5 6 9 4 11 8 3 7 10 12 11 12 13 14 15 16 17 18 19 17 16 16 15 15 14 10 8 9 5 9 8 9 8 11 12 14 15 12 12 10 10 8 11 11 11 6 3 8
2 4 6 9 19 1 13 5 3 6 10 10 11 8 12 15 16 18 19 19 16 17 16 15 16 16 14 10 8 4 4 5 8 9 10 12 14 13 13 13 12 12 10 9 12 11 12 6 7
5 2 11 13 9 5 8 5 7 7 6 15 17 18 15 15 15 15 17 17 16 16 16 15 15 15 14 11 3 10 8 6 5 8 8 9 14 14 13 14 14 13 10 12 11 10 9 9 10
7 15 12 6 3 5 6 5 7 8 9 17 17 17 17 15 15 15 16 16 15 15 16 15 13 13 18 12 11 7 9 6 3 6 9 10 12 14 15 15 15 13 10 12 14 13 12 9 10
12 3 2 3 2 0 5 5 5 8 9 10 13 14 15 16 14 13 13 14 14 14 14 14 15 13 16 14 13 9 5 11 6 8 8 8 8 9 13 14 14 14 13 13 13 14 15 12 10
12 4 1 1 1 4 4 3 2 8 7 8 11 12 11 12 13 15 16 15 16 15 15 13 16 15 15 18 12 12 10 11 3 7 7 8 8 8 11 13 13 12 14 14 12 13 14 14 11
7 6 4 5 6 5 3 4 4 3 6 7 8 7 9 11 12 12 14 14 13 14 14 14 13 13 13 14 15 14 12 7 6 7 7 6 5 8 11 12 12 14 14 13 14 11 12 14 12
5 6 3 0 1 5 3 3 7 4 4 4 6 7 8 10 11 12 13 12 11 13 14 13 15 11 12 13 11 14 12 13 9 10 9 9 4 3 8 13 13 13 12 13 13 11 14 14 14
4 3 1 1 6 5 1 4 4 8 9 8 7 8 8 9 10 9 10 12 12 11 11 12 12 14 14 12 11 9 14 12 10 8 10 10 10 13 6 12 13 13 13 14 13 12 12 13 12
1 1 5 1 3 4 5 1 4 5 6 9 10 8 8 7 7 8 9 10 9 9 12 12 12 13 13 14 13 12 11 12 10 10 10 9 9 11 11 12 9 12 13 14 13 13 12 13 13
3 1 2 3 1 1 4 6 4 5 5 6 12 11 8 7 6 6 7 9 10 11 11 12 13 13 12 12 10 9 9 10 11 11 10 9 9 8 9 12 8 6 11 13 15 15 13 16 17
Wind_Direction
1 336 308 260 195 248 211 222 234 239 206 265 261 204 202 300 180 130 94 174 159 161 164 171 167 167 153 154 147 145 144 144 144 143 142 140 138 134 129 129 129 126 123 119 117 115 110 107 105
331 260 342 38 253 217 190 208 204 211 318 342 265 233 227 218 267 349 139 170 166 160 160 172 168 169 165 152 153 151 151 149 146 147 147 144 142 140 135 128 127 122 120 114 112 109 105 106 108
296 255 244 188 231 227 248 208 209 178 258 313 289 264 271 225 262 10 21 164 172 162 162 166 167 170 166 162 159 157 155 152 149 151 149 145 142 142 137 132 122 118 114 108 106 108 111 111 113
316 187 214 241 223 258 212 74 200 159 256 277 290 266 246 347 342 2 164 168 171 168 166 149 167 172 169 167 163 161 160 163 153 150 149 149 144 141 137 122 119 117 111 110 118 119 116 117 117
193 258 231 225 240 232 246 276 13 156 210 257 262 238 274 30 359 339 175 183 174 174 161 161 168 169 169 167 166 167 165 163 151 152 152 148 144 141 131 123 123 119 118 124 126 125 121 118 119
192 254 224 232 233 241 242 306 300 236 188 267 234 253 251 55 11 342 249 189 183 176 155 170 167 169 166 166 170 163 165 160 153 152 149 147 143 139 131 129 128 126 130 128 127 124 121 118 125
290 244 251 252 238 257 234 344 284 299 245 229 301 265 258 338 352 327 268 206 186 174 165 169 173 172 165 168 170 165 162 152 151 150 148 141 140 141 137 134 131 131 131 127 123 122 121 127 123
320 273 264 248 247 249 17 334 5 15 293 330 267 300 157 326 338 323 251 208 192 158 172 172 173 176 176 175 173 157 145 138 142 141 132 132 133 135 135 133 133 134 130 125 122 121 127 129 119
304 240 260 259 267 270 358 345 344 324 274 313 298 34 352 332 336 352 276 199 206 177 176 173 177 178 179 174 174 146 139 137 134 136 135 143 154 155 151 137 132 131 127 120 119 129 113 101 98
326 261 296 7 319 299 310 315 322 321 314 293 311 327 348 337 345 343 337 229 211 184 182 182 183 179 180 176 175 178 168 168 171 168 166 169 160 158 159 133 123 127 121 116 118 115 118 138 130
357 323 359 347 314 308 298 296 317 295 287 290 320 322 333 330 332 335 331 325 240 202 189 196 182 183 179 181 176 180 175 174 167 169 170 165 158 147 145 144 146 129 129 125 122 139 156 149 141
319 6 334 304 311 297 286 296 282 278 276 289 300 310 308 319 321 333 328 329 308 230 200 201 181 190 186 178 183 178 175 167 164 169 165 162 154 153 151 159 147 142 139 138 156 161 149 151 147
36 339 309 299 295 286 280 262 267 274 283 278 286 292 297 315 325 326 329 327 315 288 212 190 182 195 185 188 179 174 173 175 168 168 167 169 159 159 160 154 154 149 146 165 152 155 151 147 132
326 310 294 292 296 297 299 286 274 275 272 271 264 278 293 319 338 330 339 338 329 320 250 193 192 198 187 188 182 175 174 175 173 173 172 169 162 158 166 164 154 147 157 162 157 152 151 141 138
313 315 316 176 348 309 325 282 260 277 279 283 265 262 269 331 352 349 343 332 329 317 300 230 195 195 190 176 186 181 166 174 178 173 175 166 158 167 162 162 154 145 146 150 153 143 140 134 135
325 241 333 342 333 335 315 299 322 345 316 285 251 246 220 3 352 1 344 338 338 324 315 316 200 196 196 183 172 166 185 183 175 177 178 169 157 172 164 159 154 142 145 154 157 152 142 137 142
41 324 328 327 3 330 330 300 337 356 321 260 230 221 140 41 1 1 359 351 341 334 330 317 287 196 197 188 174 175 193 186 172 177 179 169 164 159 160 163 152 151 148 158 159 152 149 148 136
326 328 327 314 330 326 319 328 357 13 5 17 24 34 31 35 1 357 2 359 340 348 349 340 328 226 197 185 168 180 181 199 175 181 178 171 165 161 154 147 151 157 149 157 159 148 141 143 136
277 280 297 308 321 335 338 359 42 23 20 21 14 14 10 357 352 357 355 9 344 2 353 356 351 335 234 191 180 188 183 187 184 192 172 174 164 163 158 153 157 158 165 161 160 142 136 126 148
234 285 325 304 327 326 330 13 31 34 32 19 10 3 6 357 356 2 353 1 4 358 344 359 351 333 313 200 188 184 189 192 192 184 179 169 170 171 160 164 160 161 166 165 168 157 151 122 189
271 267 325 320 321 174 326 194 2 41 36 18 22 19 14 7 357 350 350 353 4 355 346 354 349 331 318 320 184 166 182 198 188 183 186 175 172 172 164 171 165 170 170 177 176 175 174 155 204
304 211 307 309 327 349 10 345 53 352 28 16 12 6 8 360 359 354 352 346 354 348 348 349 357 335 335 329 213 186 196 194 195 187 182 184 173 172 171 172 173 178 179 178 182 185 188 169 178
281 328 300 270 287 294 26 278 16 12 352 3 1 358 353 357 2 354 344 339 343 353 352 348 350 360 338 356 332 207 207 209 176 182 185 182 184 180 181 181 179 180 188 184 183 184 195 194 183
308 320 184 195 238 191 350 329 41 355 325 335 348 345 343 346 354 357 343 350 346 354 354 354 343 14 339 355 350 49 13 207 183 190 197 192 181 181 185 182 183 187 186 189 188 188 194 198 200
352 301 330 184 4 19 327 287 336 308 304 309 322 330 336 342 357 353 350 351 350 353 352 357 351 354 357 5 358 11 19 26 322 210 196 196 188 189 188 184 189 191 193 193 192 191 195 203 205
12 1 16 346 341 344 317 4 14 266 281 272 306 312 329 353 358 348 349 348 352 353 357 357 349 353 360 10 360 355 30 20 30 3 331 188 194 198 177 193 199 197 200 196 194 194 201 203 210
16 26 348 330 240 260 344 224 261 281 278 280 315 338 351 346 346 347 344 341 352 1 0 352 350 354 358 7 3 8 6 11 8 0 3 3 326 206 192 195 195 199 202 205 199 201 201 201 207
27 118 231 158 347 333 307 263 321 327 324 330 335 338 335 335 340 339 334 341 0 356 3 351 350 355 357 10 8 17 13 356 347 8 15 12 354 349 246 198 205 202 195 198 204 210 211 214 213
62 67 55 74 325 321 311 219 194 239 277 306 311 313 311 310 316 330 338 343 348 3 4 350 358 7 356 9 358 10 19 344 352 1 18 6 356 353 336 327 222 210 204 200 201 203 202 214 226
33 334 306 317 24 21 307 281 161 244 280 278 292 301 301 292 298 312 340 345 350 359 358 2 357 358 1 3 3 7 1 2 359 349 360 357 4 355 347 330 329 304 216 210 213 207 205 203 209